星链-30600 (STARLINK-30600 )

导读 | 豆包AI

STARLINK-30600是美国星链计划的卫星,于2023年10月21日发射,是SpaceX星链星座组网建设的组成部分。星链系统旨在为全球提供高速低延迟互联网服务,该卫星的入轨进一步扩充了星链星座的规模,推进全球覆盖组网进程。

基本信息
目录编号:
58100
目录名称:
STARLINK-30600
国际标识:
2023-161D
轨道中心:
EARTH
卫星名称:
星链-30600
卫星全名:
星链-30600 (STARLINK-30600 )
卫星状态:
在轨 (已飞行922 天)
发射日期:
2023-10-21 UTC
国别 :
美国 (US)
星等 :
--
轨道信息
数据来源 国际轨道数据 AOE轨道数据
星历时间 2026-04-30T04:20:42+0800
22小时前
查看轨道信息
2026-04-26T02:00:00+0800
5天前
查看轨道信息
半长轴 6853.379km 6853.353km
偏心率 0.0001129 0.0000868
轨道倾角 53.161° 53.159°
近地点辐角 98.324° 98.072°
升交点赤经 287.935° 306.973°
平近点角 261.789° 356.417°
近地点 474.468km 474.621km
远地点 476.016km 475.811km
周期 94.106分钟 94.105分钟
每日圈数 15.301912 15.301997
详细信息
固有亮度:
5
最大亮度:
0.3
卫星平台:
Starlink v2.0 mini
覆盖范围:
全球
运营商:
太空探索技术公司
运营商所在国:
美国
制造商(研发单位):
太空探索技术公司
制造商所在国:
美国
使用方式:
暂无
卫星简介
星链(Starlink)计划是由太空探索技术公司(SpaceX)提出的一个巨型低轨卫星互联网星座项目,计划在2019年至2024年间在太空搭建由约1.2万颗卫星组成的“星链”网络,其中1584颗将部署在地球上空550千米处的近地轨道,并从2020年开始工作。该卫星仍在工作。
2D轨道图
3D轨道图
轨道高度分析图
轨道倾角分析图
轨道综合分析图
查看轨道综合分析图